This demonstration page uses our WeatherBlox Daily Observations layout. Learn more.

39.92423, -83.80882

Hourly Observations for September 4, 2016

Temp ( °F °C ) Dew Point ( °F °C ) Humidity (%) Winds ( mph kmh ) Pressure ( in mb ) Visibility ( mi km ) Precip ( " mm )
12:56 am 00:56 Clear 58 14.4 56 13.3 93 93 NE 5 7 30.19 1022 10 16.0934 0 0
1:56 am 01:56 Clear 58 14.4 55 12.8 90 90 ENE 3 6 30.19 1022 10 16.0934 0 0
2:56 am 02:56 Clear 57 13.9 55 12.8 93 93 ENE 5 7 30.18 1022 10 16.0934 0 0
3:56 am 03:56 Clear 55 12.8 54 12.2 96 96 E 5 7 30.19 1022 10 16.0934 0 0
4:56 am 04:56 Clear 55 12.8 54 12.2 96 96 NE 3 6 30.2 1023 10 16.0934 0 0
5:56 am 05:56 Clear 54 12.2 53 11.7 97 97 ENE 5 7 30.21 1023 10 16.0934 0 0
6:56 am 06:56 Clear 54 12.2 53 11.7 97 97 ENE 5 7 30.22 1023 10 16.0934 0 0
7:56 am 07:56 Sunny 56 13.3 54 12.2 93 93 E 3 6 30.24 1024 10 16.0934 0 0
8:56 am 08:56 Sunny 63 17.2 58 14.4 84 84 E 6 9 30.25 1024 10 16.0934 0 0
9:56 am 09:56 Sunny 69 20.6 61 16.1 76 76 ESE 8 13 30.24 1024 10 16.0934 0 0
10:56 am 10:56 Sunny 73 22.8 60 15.6 64 64 SE 8 13 30.25 1024 10 16.0934 0 0
11:56 am 11:56 Sunny 76 24.4 61 16.1 60 60 SSE 6 9 30.25 1024 10 16.0934 0 0
12:56 pm 12:56 Sunny 77 25 58 14.4 52 52 SE 9 15 30.24 1024 10 16.0934 0 0
1:56 pm 13:56 Sunny 79 26.1 58 14.4 49 49 ESE 8 13 30.23 1024 10 16.0934 0 0
2:56 pm 14:56 Sunny 80 26.7 58 14.4 47 47 Calm 30.21 1023 10 16.0934 0 0
3:56 pm 15:56 Sunny 79 26.1 59 15 50 50 S 6 9 30.19 1023 10 16.0934 0 0
4:56 pm 16:56 Sunny 80 26.7 59 15 49 49 ESE 8 13 30.19 1022 10 16.0934 0 0
5:56 pm 17:56 Sunny 79 26.1 58 14.4 49 49 SE 6 9 30.18 1022 10 16.0934 0 0
6:56 pm 18:56 Sunny 76 24.4 63 17.2 64 64 SE 5 7 30.19 1022 10 16.0934 0 0
8:56 pm 20:56 Clear 69 20.6 60 15.6 73 73 SE 5 7 30.21 1023 10 16.0934 0 0
9:56 pm 21:56 Clear 63 17.2 59 15 87 87 ESE 3 6 30.22 1024 10 16.0934 0 0
10:56 pm 22:56 Clear 61 16.1 59 15 93 93 E 3 6 30.23 1024 10 16.0934 0 0
11:56 pm 23:56 Clear 60 15.6 57 13.9 90 90 E 5 7 30.22 1023 10 16.0934 0 0

Powered by AerisWeather